Weather History for KDBQ - April, 2012

Change the Weather History Date:

Sunday, April 29, 2012

  Actual Average Record
Temperature  
Mean Temperature 46 °F 53 °F  
Max Temperature 53 °F 64 °F 89 °F (1952)
Min Temperature 38 °F 43 °F 23 °F (1958)
Degree Days  
Heating Degree Days 19 12  
Month to date heating degree days 462 498  
Since 1 July heating degree days 5729 6809  
Cooling Degree Days 0 0  
Month to date cooling degree days 1 0  
Year to date cooling degree days 19 0  
Moisture  
Dew Point 42 °F    
Average Humidity 83    
Maximum Humidity 100    
Minimum Humidity 66    
Precipitation  
Precipitation 0.34 in 0.14 in 1.60 in (1984)
Month to date precipitation 2.31 3.52  
Year to date precipitation 7.59 8.54  
Snow  
Snow 0.00 in 0.00 in - ()
Month to date snowfall 0.0 2.0  
Since 1 July snowfall 32.1 41.9  
Snow Depth 0.00 in    
Sea Level Pressure  
Sea Level Pressure 30.12 in    
Wind  
Wind Speed 9 mph (East)    
Max Wind Speed 21 mph    
Max Gust Speed 25 mph    
Visibility 6 miles    
Events Rain    
T = Trace of Precipitation, MM = Missing Value Source: NWS Daily Summary

Daily Weather History Graph

Daily Weather History Graph

Search for Another Location

Airport or City:

Trip Planner

Search our weather history database for the weather conditions in past years. The results will help you decide how hot, cold, wet, or windy it might be!

Date:

Astronomy

Apr. 29, 2012 Rise Set
Actual Time 6:00 AM CDT 8:00 PM CDT
Civil Twilight 5:29 AM CDT 8:31 PM CDT
Nautical Twilight 4:52 AM CDT 9:09 PM CDT
Astronomical Twilight 4:11 AM CDT 9:49 PM CDT
Moon 12:45 PM CDT (4/29) 1:59 AM CDT (4/29)
Length of Visible Light 15h 01m
Length of Day
14h 00m
First Quarter, 53% of the Moon is Illuminated
Apr 29
First Quarter
May 5
Full
May 12
Last Quarter
May 20
New
May 28
First Quarter

Hourly Weather History & Observations

Time (CDT) Temp. Windchill Dew Point Humidity Pressure Visibility Wind Dir Wind Speed Gust Speed Precip Events Conditions
12:13 AM 42.8 °F 35.8 °F 37.4 °F 81% 30.20 in 8.0 mi East 13.8 mph - N/A   Overcast
12:53 AM 43.0 °F 36.8 °F 37.0 °F 80% 30.24 in 9.0 mi East 11.5 mph - N/A   Overcast
1:53 AM 43.0 °F 37.2 °F 37.0 °F 80% 30.23 in 8.0 mi East 10.4 mph - N/A   Overcast
2:53 AM 42.1 °F 37.1 °F 37.9 °F 85% 30.22 in 8.0 mi ENE 8.1 mph - N/A   Overcast
3:10 AM 41.0 °F 36.4 °F 37.4 °F 87% 30.20 in 8.0 mi NE 6.9 mph - N/A   Mostly Cloudy
3:53 AM 39.0 °F 34.0 °F 36.0 °F 89% 30.23 in 7.0 mi NE 6.9 mph - N/A   Scattered Clouds
4:53 AM 39.0 °F 34.0 °F 35.1 °F 86% 30.25 in 7.0 mi NE 6.9 mph - N/A   Mostly Cloudy
5:53 AM 39.0 °F 34.8 °F 35.1 °F 86% 30.25 in 8.0 mi NE 5.8 mph - N/A   Mostly Cloudy
6:53 AM 39.2 °F 32.0 °F 35.6 °F 87% 30.20 in 7.0 mi ENE 11.5 mph - N/A   Clear
7:53 AM 42.1 °F 36.6 °F 37.0 °F 82% 30.21 in 7.0 mi East 9.2 mph - N/A   Clear
8:53 AM 45.0 °F 38.5 °F 37.0 °F 74% 30.21 in 10.0 mi East 13.8 mph - N/A   Clear
9:53 AM 46.9 °F - 37.9 °F 71% 30.22 in 10.0 mi East 15.0 mph - N/A   Overcast
10:53 AM 48.9 °F - 39.9 °F 71% 30.22 in 10.0 mi East 12.7 mph - N/A   Overcast
11:53 AM 50.0 °F - 41.0 °F 71% 30.18 in 10.0 mi East 11.5 mph 19.6 mph N/A   Overcast
12:53 PM 51.1 °F - 41.0 °F 68% 30.16 in 10.0 mi East 11.5 mph - N/A   Overcast
1:50 PM 53.6 °F - 42.8 °F 67% 30.14 in 10.0 mi ESE 15.0 mph - N/A   Overcast
1:53 PM 53.1 °F - 42.1 °F 66% 30.16 in 10.0 mi East 15.0 mph - N/A   Overcast
2:53 PM 53.1 °F - 42.1 °F 66% 30.12 in 10.0 mi East 13.8 mph - N/A   Overcast
3:53 PM 50.0 °F - 45.0 °F 83% 30.10 in 5.0 mi East 11.5 mph - 0.01 in Rain Light Rain
4:53 PM 48.9 °F - 46.0 °F 90% 30.08 in 4.0 mi ENE 11.5 mph - 0.06 in Rain Light Rain
5:44 PM 48.2 °F - 44.6 °F 87% 30.03 in 2.5 mi ENE 11.5 mph - 0.04 in Rain Rain
5:48 PM 46.4 °F 41.5 °F 44.6 °F 93% 30.03 in 3.0 mi East 10.4 mph - 0.05 in Rain Rain
5:53 PM 46.9 °F - 45.0 °F 93% 30.06 in 2.5 mi East 9.2 mph 17.3 mph 0.05 in Rain Rain
6:08 PM 46.4 °F 41.9 °F 44.6 °F 93% 30.04 in 3.0 mi East 9.2 mph - 0.05 in Rain Light Rain
6:44 PM 46.4 °F 41.9 °F 44.6 °F 93% 30.03 in 1.8 mi East 9.2 mph - 0.07 in Rain Rain
6:53 PM 46.9 °F - 45.0 °F 93% 30.05 in 1.8 mi East 9.2 mph - 0.09 in Rain Light Rain
7:53 PM 46.9 °F - 46.0 °F 97% 30.06 in 1.5 mi ESE 6.9 mph - 0.06 in Rain Light Rain
8:02 PM 46.4 °F 44.3 °F 46.4 °F 100% 30.04 in 2.0 mi East 4.6 mph - 0.00 in Rain Light Rain
8:38 PM 46.4 °F 43.5 °F 46.4 °F 100% 30.04 in 1.5 mi East 5.8 mph - 0.02 in Rain Light Rain
9:07 PM 46.4 °F 43.5 °F 46.4 °F 100% 30.04 in 2.0 mi NE 5.8 mph - N/A   Overcast
9:14 PM 46.4 °F 42.9 °F 46.4 °F 100% 30.03 in 1.0 mi East 6.9 mph - N/A   Overcast
9:32 PM 46.4 °F 42.9 °F 46.4 °F 100% 30.03 in 2.0 mi East 6.9 mph - 0.01 in Rain Light Rain
9:53 PM 46.9 °F - 46.0 °F 97% 30.05 in 2.0 mi East 5.8 mph - 0.02 in   Overcast
10:23 PM 46.4 °F 43.5 °F 46.4 °F 100% 30.03 in 1.5 mi ENE 5.8 mph - 0.01 in   Overcast
10:53 PM 46.9 °F - 46.0 °F 97% 30.04 in 1.8 mi East 5.8 mph - 0.02 in   Overcast
11:32 PM 46.4 °F 42.9 °F 46.4 °F 100% 30.01 in 2.0 mi East 6.9 mph - N/A   Overcast
11:53 PM 46.9 °F - 46.0 °F 97% 30.01 in 2.5 mi East 5.8 mph - N/A   Overcast